User: anonymous   Login
Location: Unspecified
(0.0000°N, 0.0000°E)
Time: 22:51:11
(UTC+00:00)
Language:

DNEPR OBJECT AB - Orbit

View from above orbital plane
View from above orbital plane
View from above satellite
View from above satellite

Ground track
Ground track

The orbit data is extracted from the following two-line orbital elements,

1 39441U 13066AB  24108.79058064  .00006005  00000-0  77033-3 0  9995
2 39441  97.8181  49.9084 0076321 131.3931 229.3876 14.79539912560166
Epoch (UTC): 17 April 2024 18:58:26
Eccentricity: 0.0076321
inclination: 97.8181°
perigee height: 577 km
apogee height: 684 km
right ascension of ascending node: 49.9084°
argument of perigee: 131.3931°
revolutions per day: 14.79539912
mean anomaly at epoch: 229.3876°
orbit number at epoch: 56016

The dashed part of the orbit path shows where the satellite is in the earth's shadow,  

DLR